| time (UTC) | temp F | wind direction | speed MPH | gust MPH | rain 1hr in | rain 24hr in | rain mn in | humidity % | barometer mb |
| 20260508092106 | 71 | 122 | 5.0 | 10.0 | 0.00 | 0.00 | 0.00 | 60 | 1016.6 |
| 20260508091107 | 72 | 155 | 4.0 | 7.0 | 0.00 | 0.00 | 0.00 | 60 | 1016.3 |
| 20260508090607 | 73 | 94 | 3.0 | 8.0 | 0.00 | 0.00 | 0.00 | 60 | 1016.4 |
| 20260508090107 | 73 | 90 | 4.0 | 7.0 | 0.00 | 0.00 | 0.00 | 60 | 1016.3 |
| 20260508085606 | 73 | 112 | 3.0 | 6.0 | 0.00 | 0.00 | 0.00 | 61 | 1016.2 |
| 20260508085106 | 74 | 105 | 2.0 | 6.0 | 0.00 | 0.00 | 0.00 | 61 | 1016.3 |
| 20260508084606 | 73 | 106 | 2.0 | 6.0 | 0.00 | 0.00 | 0.00 | 61 | 1016.1 |
| 20260508084106 | 72 | 80 | 2.0 | 6.0 | 0.00 | 0.00 | 0.00 | 61 | 1016.2 |
| 20260508083606 | 71 | 112 | 3.0 | 6.0 | 0.00 | 0.00 | 0.00 | 60 | 1016.2 |
| 20260508083106 | 72 | 119 | 2.0 | 6.0 | 0.00 | 0.00 | 0.00 | 60 | 1016.1 |
| 20260508082606 | 70 | 135 | 5.0 | 7.0 | 0.00 | 0.00 | 0.00 | 60 | 1016.1 |
| 20260508082106 | 71 | 112 | 4.0 | 7.0 | 0.00 | 0.00 | 0.00 | 60 | 1016.0 |
| 20260508081606 | 70 | 98 | 3.0 | 7.0 | 0.00 | 0.00 | 0.00 | 60 | 1016.0 |
| 20260508081106 | 72 | 116 | 2.0 | 8.0 | 0.00 | 0.00 | 0.00 | 60 | 1016.0 |
| 20260508080606 | 71 | 117 | 3.0 | 8.0 | 0.00 | 0.00 | 0.00 | 60 | 1015.9 |
| 20260508080107 | 71 | 90 | 2.0 | 7.0 | 0.00 | 0.00 | 0.00 | 60 | 1015.8 |
| 20260508075106 | 71 | 98 | 2.0 | 7.0 | 0.00 | 0.00 | 0.00 | 60 | 1015.8 |
| 20260508074106 | 71 | 109 | 2.0 | 7.0 | 0.00 | 0.00 | 0.00 | 60 | 1015.6 |
| 20260508073606 | 71 | 68 | 3.0 | 6.0 | 0.00 | 0.00 | 0.00 | 61 | 1015.6 |
| 20260508072606 | 73 | 270 | 0.0 | 3.0 | 0.00 | 0.00 | 0.00 | 60 | 1015.5 |
| 20260508072106 | 73 | 244 | 1.0 | 3.0 | 0.00 | 0.00 | 0.00 | 60 | 1015.5 |
| 20260508071106 | 72 | 269 | 2.0 | 5.0 | 0.00 | 0.00 | 0.00 | 59 | 1015.3 |
| 20260508070606 | 72 | 261 | 1.0 | 3.0 | 0.00 | 0.00 | 0.00 | 59 | 1015.2 |
| 20260508070106 | 72 | 225 | 1.0 | 3.0 | 0.00 | 0.00 | 0.00 | 59 | 1015.3 |
| 20260508065606 | 71 | 219 | 1.0 | 3.0 | 0.00 | 0.00 | 0.00 | 59 | 1015.6 |
| 20260508065106 | 72 | 240 | 3.0 | 5.0 | 0.00 | 0.00 | 0.00 | 59 | 1015.6 |
| 20260508063606 | 71 | 292 | 2.0 | 6.0 | 0.00 | 0.00 | 0.00 | 58 | 1015.6 |
| 20260508063106 | 71 | 265 | 3.0 | 6.0 | 0.00 | 0.00 | 0.00 | 58 | 1015.6 |
| 20260508062606 | 71 | 292 | 4.0 | 7.0 | 0.00 | 0.00 | 0.00 | 58 | 1015.8 |
| 20260508062106 | 70 | 263 | 2.0 | 5.0 | 0.00 | 0.00 | 0.00 | 58 | 1015.5 |
| 20260508061606 | 70 | 225 | 2.0 | 5.0 | 0.00 | 0.00 | 0.00 | 58 | 1015.7 |
| 20260508061106 | 70 | 292 | 2.0 | 6.0 | 0.00 | 0.00 | 0.00 | 58 | 1015.6 |
| 20260508060607 | 70 | 248 | 2.0 | 6.0 | 0.00 | 0.00 | 0.00 | 58 | 1015.7 |
| 20260508060107 | 70 | 250 | 3.0 | 6.0 | 0.00 | 0.00 | 0.00 | 58 | 1015.5 |
| 20260508055106 | 70 | 248 | 2.0 | 3.0 | 0.00 | 0.00 | 0.00 | 58 | 1015.4 |
| 20260508054606 | 70 | 260 | 1.0 | 5.0 | 0.00 | 0.00 | 0.00 | 58 | 1015.6 |
| 20260508054106 | 69 | 232 | 2.0 | 5.0 | 0.00 | 0.00 | 0.00 | 58 | 1015.5 |
| 20260508053607 | 70 | 270 | 1.0 | 2.0 | 0.00 | 0.00 | 0.00 | 58 | 1015.6 |
| 20260508052606 | 69 | 283 | 1.0 | 3.0 | 0.00 | 0.00 | 0.00 | 57 | 1015.5 |
| 20260508052107 | 69 | 248 | 2.0 | 3.0 | 0.00 | 0.00 | 0.00 | 57 | 1015.4 |
| 20260508051106 | 69 | 106 | 1.0 | 3.0 | 0.00 | 0.00 | 0.00 | 57 | 1015.3 |
| 20260508050606 | 69 | 135 | 1.0 | 5.0 | 0.00 | 0.00 | 0.00 | 57 | 1015.3 |
| 20260508050107 | 68 | 207 | 1.0 | 6.0 | 0.00 | 0.00 | 0.00 | 57 | 1015.2 |
| 20260508045607 | 67 | 301 | 3.0 | 7.0 | 0.00 | 0.00 | 0.00 | 58 | 1015.2 |
| 20260508045106 | 67 | 264 | 3.0 | 10.0 | 0.00 | 0.00 | 0.00 | 58 | 1015.1 |
| 20260508044606 | 67 | 277 | 5.0 | 9.0 | 0.00 | 0.00 | 0.00 | 58 | 1015.0 |
| 20260508044106 | 67 | 292 | 5.0 | 9.0 | 0.00 | 0.00 | 0.00 | 58 | 1015.1 |
| 20260508043606 | 67 | 230 | 2.0 | 7.0 | 0.00 | 0.00 | 0.00 | 58 | 1015.1 |
| 20260508042606 | 66 | 225 | 3.0 | 7.0 | 0.00 | 0.00 | 0.00 | 57 | 1014.9 |
| 20260508042107 | 66 | 292 | 3.0 | 7.0 | 0.00 | 0.00 | 0.00 | 57 | 1015.2 |
| 20260508041606 | 65 | 235 | 5.0 | 8.0 | 0.00 | 0.00 | 0.00 | 57 | 1015.2 |
| 20260508041106 | 65 | 284 | 6.0 | 8.0 | 0.00 | 0.00 | 0.00 | 57 | 1015.0 |
| 20260508040607 | 65 | 270 | 3.0 | 8.0 | 0.00 | 0.00 | 0.00 | 57 | 1015.0 |
| 20260508040106 | 65 | 273 | 5.0 | 8.0 | 0.00 | 0.00 | 0.00 | 57 | 1014.9 |
| 20260508035606 | 65 | 278 | 6.0 | 9.0 | 0.00 | 0.00 | 0.00 | 57 | 1014.8 |
| 20260508035106 | 65 | 289 | 5.0 | 10.0 | 0.00 | 0.00 | 0.00 | 57 | 1014.6 |
| 20260508034107 | 65 | 233 | 5.0 | 9.0 | 0.00 | 0.00 | 0.00 | 58 | 1014.7 |
| 20260508033606 | 64 | 292 | 3.0 | 9.0 | 0.00 | 0.00 | 0.00 | 58 | 1014.7 |
| 20260508033107 | 64 | 316 | 4.0 | 9.0 | 0.00 | 0.00 | 0.00 | 58 | 1014.8 |
| 20260508032606 | 64 | 234 | 5.0 | 8.0 | 0.00 | 0.00 | 0.00 | 58 | 1014.6 |
| 20260508032106 | 64 | 262 | 3.0 | 7.0 | 0.00 | 0.00 | 0.00 | 58 | 1014.6 |
| 20260508031606 | 64 | 285 | 3.0 | 12.0 | 0.00 | 0.00 | 0.00 | 58 | 1014.5 |
| 20260508031107 | 64 | 278 | 4.0 | 10.0 | 0.00 | 0.00 | 0.00 | 58 | 1014.5 |
| 20260508030606 | 64 | 255 | 3.0 | 8.0 | 0.00 | 0.00 | 0.00 | 58 | 1014.5 |
| 20260508030107 | 63 | 249 | 4.0 | 7.0 | 0.00 | 0.00 | 0.00 | 58 | 1014.6 |
| 20260508025606 | 63 | 242 | 3.0 | 7.0 | 0.00 | 0.00 | 0.00 | 57 | 1014.5 |
| 20260508025106 | 63 | 258 | 3.0 | 7.0 | 0.00 | 0.00 | 0.00 | 56 | 1014.5 |
| 20260508024606 | 63 | 257 | 3.0 | 7.0 | 0.00 | 0.00 | 0.00 | 55 | 1014.5 |
| 20260508024106 | 63 | 266 | 3.0 | 7.0 | 0.00 | 0.00 | 0.00 | 55 | 1014.5 |
| 20260508023607 | 62 | 315 | 3.0 | 7.0 | 0.00 | 0.00 | 0.00 | 55 | 1014.6 |
| 20260508023106 | 63 | 270 | 3.0 | 7.0 | 0.00 | 0.00 | 0.00 | 54 | 1014.6 |
| 20260508022607 | 63 | 273 | 2.0 | 5.0 | 0.00 | 0.00 | 0.00 | 53 | 1014.6 |
| 20260508022106 | 63 | 270 | 4.0 | 8.0 | 0.00 | 0.00 | 0.00 | 53 | 1014.7 |
| 20260508021606 | 63 | 270 | 1.0 | 6.0 | 0.00 | 0.00 | 0.00 | 53 | 1014.8 |
| 20260508021107 | 62 | 279 | 1.0 | 3.0 | 0.00 | 0.00 | 0.00 | 52 | 1014.7 |
| 20260508020606 | 62 | 202 | 0.0 | 3.0 | 0.00 | 0.00 | 0.00 | 52 | 1014.6 |
| 20260508020107 | 62 | 270 | 1.0 | 3.0 | 0.00 | 0.00 | 0.00 | 51 | 1014.6 |
| 20260508015606 | 62 | 270 | 1.0 | 3.0 | 0.00 | 0.00 | 0.00 | 50 | 1014.8 |
| 20260508014106 | 62 | 292 | 2.0 | 5.0 | 0.00 | 0.00 | 0.00 | 46 | 1014.7 |
| 20260508013607 | 62 | 270 | 1.0 | 3.0 | 0.00 | 0.00 | 0.00 | 46 | 1014.6 |
| 20260508013106 | 62 | 270 | 1.0 | 2.0 | 0.00 | 0.00 | 0.00 | 46 | 1014.7 |
| 20260508012607 | 62 | 270 | 1.0 | 2.0 | 0.00 | 0.00 | 0.00 | 46 | 1014.7 |
| 20260508012107 | 63 | 270 | 1.0 | 2.0 | 0.00 | 0.00 | 0.00 | 46 | 1014.8 |
| 20260508011606 | 63 | 256 | 1.0 | 2.0 | 0.00 | 0.00 | 0.00 | 46 | 1014.7 |
| 20260508011106 | 63 | 248 | 1.0 | 2.0 | 0.00 | 0.00 | 0.00 | 47 | 1014.7 |
| 20260508010606 | 63 | 262 | 1.0 | 2.0 | 0.00 | 0.00 | 0.00 | 48 | 1014.8 |
| 20260508010107 | 63 | 270 | 0.0 | 2.0 | 0.00 | 0.00 | 0.00 | 49 | 1014.8 |
| 20260508005606 | 63 | 248 | 1.0 | 2.0 | 0.00 | 0.00 | 0.00 | 51 | 1014.8 |
| 20260508004607 | 63 | 256 | 1.0 | 2.0 | 0.00 | 0.00 | 0.00 | 53 | 1015.0 |
| 20260508004106 | 63 | 270 | 1.0 | 3.0 | 0.00 | 0.00 | 0.00 | 53 | 1015.1 |
| 20260508003607 | 63 | 239 | 1.0 | 3.0 | 0.00 | 0.00 | 0.00 | 53 | 1015.2 |
| 20260508003106 | 63 | 256 | 1.0 | 3.0 | 0.00 | 0.00 | 0.00 | 54 | 1015.3 |
| 20260508002606 | 63 | 270 | 1.0 | 3.0 | 0.00 | 0.00 | 0.00 | 54 | 1015.3 |
| 20260508002106 | 63 | 284 | 1.0 | 3.0 | 0.00 | 0.00 | 0.00 | 54 | 1015.1 |
| 20260508001606 | 63 | 283 | 1.0 | 3.0 | 0.00 | 0.00 | 0.00 | 55 | 1015.1 |
| 20260508001106 | 63 | 270 | 1.0 | 1.0 | 0.00 | 0.00 | 0.00 | 56 | 1015.1 |
| 20260508000606 | 63 | 270 | 1.0 | 1.0 | 0.00 | 0.00 | 0.00 | 56 | 1015.2 |
| 20260508000106 | 63 | 270 | 1.0 | 2.0 | 0.00 | 0.00 | 0.00 | 56 | 1015.3 |
| 20260507235606 | 63 | 265 | 1.0 | 2.0 | 0.00 | 0.00 | 0.00 | 56 | 1015.3 |
| 20260507234606 | 63 | 270 | 1.0 | 2.0 | 0.00 | 0.00 | 0.00 | 56 | 1015.3 |
| 20260507234107 | 63 | 270 | 1.0 | 3.0 | 0.00 | 0.00 | 0.00 | 56 | 1015.3 |
| 20260507233607 | 63 | 278 | 1.0 | 3.0 | 0.00 | 0.00 | 0.00 | 56 | 1015.6 |
| 20260507232611 | 64 | 270 | 2.0 | 3.0 | 0.00 | 0.00 | 0.00 | 57 | 1015.7 |
| 20260507232107 | 64 | 270 | 2.0 | 3.0 | 0.00 | 0.00 | 0.00 | 57 | 1015.8 |
| 20260507231606 | 64 | 291 | 2.0 | 5.0 | 0.00 | 0.00 | 0.00 | 57 | 1016.0 |
| 20260507231107 | 64 | 284 | 2.0 | 3.0 | 0.00 | 0.00 | 0.00 | 57 | 1015.7 |
| 20260507230106 | 65 | 270 | 2.0 | 3.0 | 0.00 | 0.00 | 0.00 | 58 | 1015.6 |
| 20260507225607 | 65 | 284 | 2.0 | 3.0 | 0.00 | 0.00 | 0.00 | 58 | 1015.7 |
| 20260507225106 | 65 | 260 | 2.0 | 6.0 | 0.00 | 0.00 | 0.00 | 59 | 1015.8 |
| 20260507224606 | 65 | 277 | 2.0 | 6.0 | 0.00 | 0.00 | 0.00 | 61 | 1015.6 |
| 20260507224106 | 65 | 292 | 3.0 | 6.0 | 0.00 | 0.00 | 0.00 | 61 | 1015.6 |
| 20260507223606 | 66 | 284 | 2.0 | 5.0 | 0.00 | 0.00 | 0.00 | 62 | 1015.6 |
| 20260507223107 | 66 | 278 | 2.0 | 5.0 | 0.00 | 0.00 | 0.00 | 62 | 1015.8 |
| 20260507222607 | 65 | 276 | 2.0 | 3.0 | 0.00 | 0.00 | 0.00 | 63 | 1015.7 |
| 20260507222106 | 65 | 284 | 2.0 | 3.0 | 0.00 | 0.00 | 0.00 | 63 | 1015.6 |
| 20260507221106 | 65 | 285 | 2.0 | 3.0 | 0.00 | 0.00 | 0.00 | 64 | 1015.4 |
| 20260507220606 | 65 | 270 | 2.0 | 3.0 | 0.00 | 0.00 | 0.00 | 64 | 1015.7 |
| 20260507215606 | 64 | 270 | 2.0 | 3.0 | 0.00 | 0.00 | 0.00 | 64 | 1015.8 |
| 20260507215106 | 64 | 283 | 2.0 | 3.0 | 0.00 | 0.00 | 0.00 | 64 | 1015.7 |
| 20260507214606 | 64 | 292 | 1.0 | 3.0 | 0.00 | 0.00 | 0.00 | 65 | 1015.5 |
| 20260507214107 | 65 | 292 | 2.0 | 3.0 | 0.00 | 0.00 | 0.00 | 65 | 1015.7 |
| 20260507213606 | 65 | 292 | 1.0 | 5.0 | 0.00 | 0.00 | 0.00 | 65 | 1015.8 |
| 20260507213106 | 65 | 298 | 1.0 | 5.0 | 0.00 | 0.00 | 0.00 | 65 | 1015.8 |
| 20260507211106 | 66 | 268 | 2.0 | 6.0 | 0.00 | 0.00 | 0.00 | 63 | 1015.8 |
| 20260507210606 | 66 | 261 | 2.0 | 5.0 | 0.00 | 0.00 | 0.00 | 63 | 1015.9 |
| 20260507210107 | 66 | 270 | 3.0 | 7.0 | 0.00 | 0.00 | 0.00 | 64 | 1015.9 |
| 20260507205606 | 66 | 280 | 3.0 | 7.0 | 0.00 | 0.00 | 0.00 | 64 | 1015.8 |
| 20260507205106 | 66 | 270 | 3.0 | 6.0 | 0.00 | 0.00 | 0.00 | 64 | 1015.9 |
| 20260507204607 | 66 | 270 | 2.0 | 5.0 | 0.00 | 0.00 | 0.00 | 64 | 1015.9 |
| 20260507203106 | 66 | 279 | 3.0 | 7.0 | 0.00 | 0.00 | 0.00 | 65 | 1015.8 |
| 20260507202607 | 66 | 255 | 3.0 | 8.0 | 0.00 | 0.00 | 0.00 | 65 | 1015.9 |
| 20260507202106 | 66 | 278 | 3.0 | 7.0 | 0.00 | 0.00 | 0.00 | 65 | 1015.9 |
| 20260507201606 | 66 | 296 | 3.0 | 7.0 | 0.00 | 0.00 | 0.00 | 65 | 1015.9 |
| 20260507201106 | 66 | 248 | 3.0 | 7.0 | 0.00 | 0.00 | 0.00 | 65 | 1015.9 |
| 20260507200606 | 66 | 280 | 3.0 | 7.0 | 0.00 | 0.00 | 0.00 | 65 | 1016.1 |
| 20260507200107 | 66 | 283 | 5.0 | 8.0 | 0.00 | 0.00 | 0.00 | 65 | 1015.9 |
| 20260507195606 | 66 | 284 | 5.0 | 9.0 | 0.00 | 0.00 | 0.00 | 64 | 1016.0 |
| 20260507195106 | 66 | 270 | 5.0 | 8.0 | 0.00 | 0.00 | 0.00 | 64 | 1016.2 |
| 20260507194607 | 66 | 282 | 4.0 | 6.0 | 0.00 | 0.00 | 0.00 | 64 | 1016.0 |
| 20260507194106 | 66 | 306 | 3.0 | 9.0 | 0.00 | 0.00 | 0.00 | 64 | 1016.2 |
| 20260507193606 | 66 | 236 | 5.0 | 9.0 | 0.00 | 0.00 | 0.00 | 64 | 1016.3 |
| 20260507192606 | 66 | 248 | 5.0 | 8.0 | 0.00 | 0.00 | 0.00 | 64 | 1016.2 |
| 20260507191606 | 67 | 277 | 4.0 | 9.0 | 0.00 | 0.00 | 0.00 | 64 | 1016.2 |
| 20260507191106 | 67 | 282 | 6.0 | 10.0 | 0.00 | 0.00 | 0.00 | 64 | 1016.1 |
| 20260507190606 | 67 | 240 | 3.0 | 8.0 | 0.00 | 0.00 | 0.00 | 64 | 1016.2 |
| 20260507185606 | 67 | 239 | 3.0 | 8.0 | 0.00 | 0.00 | 0.00 | 64 | 1015.9 |
| 20260507185106 | 67 | 330 | 4.0 | 12.0 | 0.00 | 0.00 | 0.00 | 64 | 1016.0 |
| 20260507184606 | 67 | 259 | 4.0 | 8.0 | 0.00 | 0.00 | 0.00 | 64 | 1016.0 |
| 20260507184106 | 67 | 278 | 5.0 | 9.0 | 0.00 | 0.00 | 0.00 | 64 | 1015.9 |
| 20260507183607 | 67 | 278 | 3.0 | 9.0 | 0.00 | 0.00 | 0.00 | 64 | 1016.1 |
| 20260507183107 | 67 | 270 | 6.0 | 8.0 | 0.00 | 0.00 | 0.00 | 63 | 1015.9 |
| 20260507182106 | 67 | 241 | 4.0 | 9.0 | 0.00 | 0.00 | 0.00 | 63 | 1015.9 |
| 20260507181606 | 67 | 312 | 5.0 | 10.0 | 0.00 | 0.00 | 0.00 | 63 | 1016.0 |
| 20260507181106 | 67 | 263 | 5.0 | 13.0 | 0.00 | 0.00 | 0.00 | 63 | 1015.9 |
| 20260507180606 | 67 | 248 | 5.0 | 10.0 | 0.00 | 0.00 | 0.00 | 63 | 1015.9 |
| 20260507180106 | 67 | 257 | 5.0 | 10.0 | 0.00 | 0.00 | 0.00 | 63 | 1015.8 |
| 20260507175606 | 67 | 270 | 3.0 | 10.0 | 0.00 | 0.00 | 0.00 | 63 | 1015.8 |
| 20260507174606 | 67 | 257 | 5.0 | 9.0 | 0.00 | 0.00 | 0.00 | 62 | 1015.2 |
| 20260507173606 | 68 | 264 | 4.0 | 10.0 | 0.00 | 0.00 | 0.00 | 62 | 1015.3 |
| 20260507173106 | 68 | 258 | 6.0 | 12.0 | 0.00 | 0.00 | 0.00 | 62 | 1015.6 |
| 20260507172606 | 68 | 249 | 5.0 | 12.0 | 0.00 | 0.00 | 0.00 | 62 | 1015.3 |
| 20260507172106 | 68 | 255 | 4.0 | 12.0 | 0.00 | 0.00 | 0.00 | 62 | 1015.6 |
| 20260507171606 | 68 | 258 | 7.0 | 13.0 | 0.00 | 0.00 | 0.00 | 62 | 1015.6 |
| 20260507171106 | 68 | 286 | 6.0 | 12.0 | 0.00 | 0.00 | 0.00 | 62 | 1015.5 |
| 20260507170606 | 68 | 270 | 5.0 | 14.0 | 0.00 | 0.00 | 0.00 | 62 | 1015.6 |
| 20260507170106 | 68 | 248 | 6.0 | 12.0 | 0.00 | 0.00 | 0.00 | 62 | 1015.7 |
| 20260507165606 | 68 | 308 | 6.0 | 13.0 | 0.00 | 0.00 | 0.00 | 62 | 1015.5 |
| 20260507164606 | 68 | 315 | 7.0 | 13.0 | 0.00 | 0.00 | 0.00 | 63 | 1015.2 |
| 20260507164106 | 68 | 280 | 9.0 | 16.0 | 0.00 | 0.00 | 0.00 | 63 | 1015.2 |
| 20260507163607 | 69 | 292 | 6.0 | 15.0 | 0.00 | 0.00 | 0.00 | 63 | 1015.1 |
| 20260507163106 | 69 | 225 | 5.0 | 13.0 | 0.00 | 0.00 | 0.00 | 63 | 1015.0 |
| 20260507162106 | 70 | 256 | 5.0 | 9.0 | 0.00 | 0.00 | 0.00 | 64 | 1014.9 |
| 20260507161606 | 70 | 279 | 6.0 | 9.0 | 0.00 | 0.00 | 0.00 | 62 | 1014.9 |
| 20260507161107 | 70 | 281 | 5.0 | 9.0 | 0.00 | 0.00 | 0.00 | 63 | 1014.8 |
| 20260507160606 | 71 | 284 | 4.0 | 13.0 | 0.00 | 0.00 | 0.00 | 64 | 1014.8 |
| 20260507160106 | 71 | 248 | 5.0 | 12.0 | 0.00 | 0.00 | 0.00 | 64 | 1014.9 |
| 20260507155607 | 71 | 282 | 5.0 | 9.0 | 0.00 | 0.00 | 0.00 | 64 | 1014.8 |
| 20260507155106 | 71 | 270 | 6.0 | 10.0 | 0.00 | 0.00 | 0.00 | 64 | 1014.9 |
| 20260507154606 | 71 | 220 | 5.0 | 12.0 | 0.00 | 0.00 | 0.00 | 64 | 1015.0 |
| 20260507154106 | 71 | 331 | 6.0 | 9.0 | 0.00 | 0.00 | 0.00 | 64 | 1015.0 |
| 20260507153606 | 71 | 243 | 5.0 | 9.0 | 0.00 | 0.00 | 0.00 | 64 | 1015.0 |
| 20260507153106 | 71 | 253 | 6.0 | 10.0 | 0.00 | 0.00 | 0.00 | 64 | 1014.9 |
| 20260507152607 | 71 | 271 | 6.0 | 10.0 | 0.00 | 0.00 | 0.00 | 64 | 1014.8 |
| 20260507152107 | 71 | 225 | 5.0 | 12.0 | 0.00 | 0.00 | 0.00 | 64 | 1014.9 |
| 20260507150606 | 72 | 225 | 4.0 | 10.0 | 0.00 | 0.00 | 0.00 | 63 | 1014.9 |
| 20260507145107 | 71 | 300 | 6.0 | 10.0 | 0.00 | 0.00 | 0.00 | 64 | 1014.9 |
| 20260507144606 | 72 | 315 | 5.0 | 12.0 | 0.00 | 0.00 | 0.00 | 64 | 1014.9 |
| 20260507144106 | 72 | 239 | 6.0 | 10.0 | 0.00 | 0.00 | 0.00 | 64 | 1014.7 |
| 20260507143606 | 72 | 276 | 4.0 | 12.0 | 0.00 | 0.00 | 0.00 | 64 | 1014.9 |
| 20260507143107 | 72 | 315 | 7.0 | 10.0 | 0.00 | 0.00 | 0.00 | 63 | 1014.9 |
| 20260507142607 | 73 | 248 | 5.0 | 10.0 | 0.00 | 0.00 | 0.00 | 64 | 1015.0 |
| 20260507142106 | 72 | 217 | 5.0 | 13.0 | 0.00 | 0.00 | 0.00 | 64 | 1014.8 |
| 20260507141606 | 72 | 284 | 6.0 | 13.0 | 0.00 | 0.00 | 0.00 | 63 | 1015.0 |
| 20260507141106 | 72 | 270 | 3.0 | 13.0 | 0.00 | 0.00 | 0.00 | 63 | 1015.1 |
| 20260507140606 | 71 | 248 | 6.0 | 14.0 | 0.00 | 0.00 | 0.00 | 63 | 1015.0 |
| 20260507140106 | 71 | 265 | 8.0 | 14.0 | 0.00 | 0.00 | 0.00 | 63 | 1015.0 |
| 20260507135106 | 72 | 258 | 5.0 | 13.0 | 0.00 | 0.00 | 0.00 | 63 | 1015.2 |
| 20260507134606 | 71 | 270 | 7.0 | 12.0 | 0.00 | 0.00 | 0.00 | 63 | 1015.1 |
| 20260507133607 | 72 | 248 | 6.0 | 13.0 | 0.00 | 0.00 | 0.00 | 64 | 1015.3 |
| 20260507133106 | 72 | 233 | 6.0 | 14.0 | 0.00 | 0.00 | 0.00 | 64 | 1015.3 |
| 20260507132606 | 72 | 281 | 8.0 | 14.0 | 0.00 | 0.00 | 0.00 | 64 | 1015.1 |
| 20260507132106 | 73 | 262 | 6.0 | 13.0 | 0.00 | 0.00 | 0.00 | 64 | 1015.2 |
| 20260507131606 | 73 | 270 | 5.0 | 13.0 | 0.00 | 0.00 | 0.00 | 64 | 1015.4 |
| 20260507131106 | 73 | 286 | 5.0 | 13.0 | 0.00 | 0.00 | 0.00 | 63 | 1015.2 |
| 20260507130606 | 73 | 278 | 6.0 | 10.0 | 0.00 | 0.00 | 0.00 | 64 | 1015.2 |
| 20260507130106 | 73 | 292 | 7.0 | 13.0 | 0.00 | 0.00 | 0.00 | 64 | 1015.2 |
| 20260507125107 | 74 | 280 | 5.0 | 10.0 | 0.00 | 0.00 | 0.00 | 63 | 1015.2 |
| 20260507124607 | 73 | 261 | 7.0 | 10.0 | 0.00 | 0.00 | 0.00 | 63 | 1015.2 |
| 20260507124106 | 76 | 255 | 2.0 | 6.0 | 0.00 | 0.00 | 0.00 | 62 | 1015.2 |
| 20260507123606 | 75 | 112 | 1.0 | 5.0 | 0.00 | 0.00 | 0.00 | 63 | 1015.1 |
| 20260507123106 | 74 | 61 | 2.0 | 6.0 | 0.00 | 0.00 | 0.00 | 63 | 1015.1 |
| 20260507122607 | 75 | 68 | 2.0 | 6.0 | 0.00 | 0.00 | 0.00 | 63 | 1015.4 |
| 20260507122107 | 74 | 15 | 3.0 | 6.0 | 0.00 | 0.00 | 0.00 | 63 | 1015.2 |
| 20260507121606 | 75 | 13 | 2.0 | 5.0 | 0.00 | 0.00 | 0.00 | 63 | 1015.3 |
| 20260507121106 | 75 | 346 | 2.0 | 3.0 | 0.00 | 0.00 | 0.00 | 63 | 1015.2 |
| 20260507120606 | 76 | 19 | 2.0 | 5.0 | 0.00 | 0.00 | 0.00 | 63 | 1015.3 |
| 20260507120106 | 75 | 36 | 1.0 | 7.0 | 0.00 | 0.00 | 0.00 | 63 | 1015.2 |
| 20260507115606 | 75 | 90 | 2.0 | 7.0 | 0.00 | 0.00 | 0.00 | 63 | 1015.3 |
| 20260507114607 | 73 | 135 | 5.0 | 8.0 | 0.00 | 0.00 | 0.00 | 63 | 1015.2 |
| 20260507114106 | 74 | 88 | 3.0 | 9.0 | 0.00 | 0.00 | 0.00 | 62 | 1015.2 |
| 20260507113606 | 72 | 112 | 5.0 | 9.0 | 0.00 | 0.00 | 0.00 | 62 | 1015.2 |
| 20260507112607 | 73 | 158 | 5.0 | 9.0 | 0.00 | 0.00 | 0.00 | 62 | 1015.3 |
| 20260507112106 | 73 | 112 | 3.0 | 7.0 | 0.00 | 0.00 | 0.00 | 62 | 1015.3 |
| 20260507111606 | 74 | 112 | 2.0 | 5.0 | 0.00 | 0.00 | 0.00 | 62 | 1015.2 |
| 20260507111106 | 73 | 128 | 3.0 | 7.0 | 0.00 | 0.00 | 0.00 | 61 | 1015.3 |
| 20260507110606 | 72 | 135 | 3.0 | 8.0 | 0.00 | 0.00 | 0.00 | 60 | 1015.4 |
| 20260507110106 | 72 | 128 | 3.0 | 8.0 | 0.00 | 0.00 | 0.00 | 61 | 1015.4 |
| 20260507105106 | 70 | 97 | 6.0 | 9.0 | 0.00 | 0.00 | 0.00 | 61 | 1015.3 |
| 20260507104106 | 71 | 141 | 5.0 | 10.0 | 0.00 | 0.00 | 0.00 | 61 | 1015.6 |
| 20260507103606 | 71 | 119 | 5.0 | 9.0 | 0.00 | 0.00 | 0.00 | 61 | 1015.5 |
| 20260507103106 | 70 | 112 | 6.0 | 9.0 | 0.00 | 0.00 | 0.00 | 61 | 1015.5 |
| 20260507102606 | 71 | 172 | 3.0 | 10.0 | 0.00 | 0.00 | 0.00 | 61 | 1015.5 |
| 20260507102107 | 71 | 112 | 5.0 | 9.0 | 0.00 | 0.00 | 0.00 | 61 | 1015.5 |
| 20260507101606 | 72 | 90 | 3.0 | 8.0 | 0.00 | 0.00 | 0.00 | 61 | 1015.6 |
| 20260507101106 | 71 | 112 | 5.0 | 8.0 | 0.00 | 0.00 | 0.00 | 60 | 1015.4 |
| 20260507100606 | 72 | 106 | 3.0 | 8.0 | 0.00 | 0.00 | 0.00 | 60 | 1015.5 |
| 20260507100106 | 72 | 135 | 5.0 | 8.0 | 0.00 | 0.00 | 0.00 | 60 | 1015.5 |
| 20260507095607 | 75 | 112 | 2.0 | 5.0 | 0.00 | 0.00 | 0.00 | 61 | 1015.3 |
| 20260507095106 | 75 | 248 | 2.0 | 5.0 | 0.00 | 0.00 | 0.00 | 59 | 1015.6 |
| 20260507094106 | 75 | 280 | 2.0 | 5.0 | 0.00 | 0.00 | 0.00 | 60 | 1015.5 |
| 20260507093606 | 73 | 263 | 2.0 | 5.0 | 0.00 | 0.00 | 0.00 | 61 | 1015.7 |
| 20260507093107 | 74 | 237 | 3.0 | 6.0 | 0.00 | 0.00 | 0.00 | 61 | 1015.8 |